Location: Wells
(51.2093°N, 2.6446°W)
Time: 05:35:01
(UTC+01:00)

ITUPSAT 1 - Pass Details

Date: 23 March 2026
Orbit: 686 x 698 km, 98.4° (Epoch: 15 April)

Event Time Altitude Azimuth Distance (km) Brightness Sun altitude
Rises 01:31:23 0° 3° (N) 3,072 ? -35.5°
Reaches altitude 10° 01:34:23 10° 343° (NNW) 2,149 ? -35.3°
Enters shadow 01:35:25 13° 331° (NNW) 1,931 ? -35.2°
